Location: Cheraw
(34.6968°N, 79.8912°W)
Time: 23:49:16
(UTC+00:00)

N. Korean satellite - Pass Details

Date: 20 August 2022
Orbit: 428 x 468 km, 97.3° (Epoch: 24 September)

Event Time Altitude Azimuth Distance (km) Brightness Sun altitude
Rises 09:24:26 0° 39° (NE) 2,524 11.5 -16.0°
Maximum altitude 09:28:50 10° 92° (E) 1,629 10.2 -15.2°
Drops below altitude 10° 09:31:35 - 131° (SE) 2,010 10.0 -14.7°
Sets 09:33:11 0° 145° (SE) 2,480 10.3 -14.4°
